This demonstration page uses our WeatherBlox Daily Observations layout. Learn more.

Hourly Observations for March 3, 2019

Temp ( °F °C ) Dew Point ( °F °C ) Humidity (%) Winds ( mph kmh ) Pressure ( in mb ) Visibility ( mi km ) Precip ( " mm )
12:15 am 00:15 Cloudy with Light Snow 5 -15.1 -1 -18.2 77 77 N 18 30 30.65 1038 2.5 4.02336 0 0
12:35 am 00:35 Cloudy with Light Snow 4 -15.5 -2 -18.7 77 77 NNE 15 24 30.65 1038 2.5 4.02336 0 0
12:55 am 00:55 Cloudy with Light Snow 4 -15.6 -2 -19 75 75 N 16 26 30.68 1039 2 3.218688 0 0
1:15 am 01:15 Cloudy with Light Snow 4 -15.7 -2 -19 76 76 N 15 24 30.68 1039 1 1.609344 0 0
1:35 am 01:35 Cloudy with Light Snow 3 -16 -3 -19.5 75 75 N 18 30 30.68 1039 2.5 4.02336 0 0
1:55 am 01:55 Cloudy with Light Snow 3 -16.1 -3 -19.7 74 74 N 14 22 30.68 1039 4 6.437376 0 0
2:15 am 02:15 Cloudy with Light Snow 3 -16.2 -4 -19.8 74 74 N 16 26 30.68 1039 4 6.437376 0 0
2:35 am 02:35 Cloudy with Light Snow 2 -16.6 -4 -20.1 75 75 N 14 22 30.71 1040 2.5 4.02336 0 0
2:55 am 02:55 Cloudy with Light Snow 2 -16.8 -4 -20.2 75 75 N 18 30 30.71 1040 2.5 4.02336 0 0
3:15 am 03:15 Cloudy with Light Snow 1 -17.1 -5 -20.5 75 75 N 15 24 30.68 1039 2 3.218688 0 0
3:35 am 03:35 Cloudy with Light Snow 1 -17 -5 -20.4 75 75 N 16 26 30.71 1040 1.5 2.414016 0 0
3:55 am 03:55 Windy with Snow Likely 1 -17.3 -5 -20.7 75 75 N 20 31 30.71 1040 2 3.218688 0 0
4:15 am 04:15 Cloudy with Light Snow 1 -17.5 -6 -21 74 74 N 17 28 30.68 1039 2.5 4.02336 0 0
4:35 am 04:35 Cloudy with Light Snow 0 -17.6 -6 -21.1 74 74 N 17 28 30.68 1039 2.5 4.02336 0 0
4:55 am 04:55 Cloudy with Light Snow 0 -17.6 -6 -21 75 75 N 16 26 30.71 1040 2.5 4.02336 0 0
5:15 am 05:15 Cloudy with Light Snow 0 -17.7 -6 -21.1 75 75 N 15 24 30.71 1040 2.5 4.02336 0 0
5:35 am 05:35 Cloudy with Light Snow 0 -17.8 -7 -21.4 74 74 N 16 26 30.71 1040 3 4.828032 0 0
5:55 am 05:55 Cloudy with Light Snow 0 -18 -7 -21.5 74 74 N 14 22 30.74 1041 3 4.828032 0 0
6:15 am 06:15 Cloudy with Light Snow -1 -18.2 -7 -21.7 74 74 N 12 19 30.74 1041 4 6.437376 0 0
6:35 am 06:35 Cloudy with Haze -1 -18.6 -8 -22.2 73 73 N 13 20 30.74 1041 5 8.04672 0 0
6:55 am 06:55 Partly Cloudy -2 -19.1 -10 -23.1 71 71 N 13 20 30.74 1041 10 16.09344 0 0
7:15 am 07:15 Mostly Cloudy -3 -19.7 -10 -23.5 72 72 N 9 15 30.74 1041 10 16.09344 0 0
7:35 am 07:35 Cloudy with Haze -2 -19 -9 -22.7 73 73 N 13 20 30.74 1041 5 8.04672 0 0
7:55 am 07:55 Cloudy with Haze -1 -18.6 -9 -22.6 71 71 N 13 20 30.77 1042 5 8.04672 0 0
8:15 am 08:15 Cloudy -1 -18.6 -9 -23 69 69 N 14 22 30.77 1042 7 11.265408 0 0
8:35 am 08:35 Cloudy -1 -18.5 -9 -23 68 68 N 15 24 30.8 1043 10 16.09344 0 0
8:55 am 08:55 Cloudy with Haze -1 -18.2 -9 -22.7 68 68 N 15 24 30.8 1043 4 6.437376 0 0
9:15 am 09:15 Cloudy with Haze -1 -18.1 -9 -22.5 69 69 NNW 12 19 30.8 1043 5 8.04672 0 0
9:35 am 09:35 Cloudy 0 -18 -9 -22.7 67 67 NNW 14 22 30.8 1043 7 11.265408 0 0
9:55 am 09:55 Cloudy 0 -17.6 -8 -22.4 66 66 NNW 13 20 30.8 1043 10 16.09344 0 0
10:15 am 10:15 Cloudy 1 -17.5 -8 -22.4 66 66 NNW 14 22 30.8 1043 10 16.09344 0 0
10:35 am 10:35 Mostly Cloudy 1 -17.4 -9 -22.5 65 65 NW 12 19 30.74 1041 10 16.09344 0 0
10:55 am 10:55 Sunny 1 -17 -8 -22.4 63 63 NNW 13 20 30.74 1041 10 16.09344 0 0
11:15 am 11:15 Mostly Cloudy 2 -16.4 -8 -22.2 61 61 NNW 14 22 30.74 1041 10 16.09344 0 0
11:35 am 11:35 Cloudy 2 -16.4 -9 -22.8 58 58 NNW 14 22 30.74 1041 10 16.09344 0 0
11:55 am 11:55 Cloudy 3 -16.1 -8 -22.3 59 59 NW 15 24 30.74 1041 10 16.09344 0 0
12:15 pm 12:15 Cloudy 3 -16 -9 -22.7 57 57 NW 14 22 30.74 1041 10 16.09344 0 0
12:35 pm 12:35 Cloudy 3 -16 -9 -23 55 55 NNW 15 24 30.74 1041 10 16.09344 0 0
12:55 pm 12:55 Cloudy 3 -16 -10 -23.1 55 55 NNW 17 28 30.71 1040 10 16.09344 0 0
1:15 pm 13:15 Cloudy 4 -15.7 -9 -23 54 54 NW 15 24 30.71 1040 10 16.09344 0 0
1:35 pm 13:35 Cloudy 5 -15.2 -9 -22.9 52 52 NNW 14 22 30.68 1039 10 16.09344 0 0
1:55 pm 13:55 Cloudy 5 -15.1 -9 -23 51 51 NNW 15 24 30.65 1038 10 16.09344 0 0
2:15 pm 14:15 Mostly Cloudy 5 -15.1 -9 -22.6 53 53 NNW 16 26 30.65 1038 10 16.09344 0 0
2:35 pm 14:35 Sunny 5 -14.8 -9 -22.5 52 52 NNW 16 26 30.65 1038 10 16.09344 0 0
2:55 pm 14:55 Sunny 6 -14.6 -8 -22.3 52 52 NNW 17 28 30.65 1038 10 16.09344 0 0
3:15 pm 15:15 Sunny 6 -14.6 -8 -22.1 53 53 NNW 16 26 30.65 1038 7 11.265408 0 0
3:35 pm 15:35 Sunny 6 -14.5 -8 -22 53 53 NNW 15 24 30.65 1038 10 16.09344 0 0
3:55 pm 15:55 Sunny 6 -14.4 -7 -21.5 55 55 NNW 14 22 30.65 1038 10 16.09344 0 0
4:15 pm 16:15 Sunny 6 -14.5 -7 -21.6 55 55 NW 12 19 30.65 1038 10 16.09344 0 0
4:35 pm 16:35 Sunny 6 -14.5 -7 -21.4 56 56 NNW 10 17 30.65 1038 10 16.09344 0 0
4:55 pm 16:55 Sunny 6 -14.5 -7 -21.5 56 56 NNW 13 20 30.65 1038 10 16.09344 0 0
5:15 pm 17:15 Sunny 6 -14.7 -7 -21.5 57 57 NNW 10 17 30.65 1038 10 16.09344 0 0
5:35 pm 17:35 Sunny 4 -15.4 -7 -21.7 59 59 NNW 10 17 30.65 1038 10 16.09344 0 0
5:55 pm 17:55 Sunny 2 -16.6 -9 -22.6 60 60 NW 8 13 30.68 1039 10 16.09344 0 0
6:15 pm 18:15 Sunny 0 -17.7 -10 -23.1 63 63 NW 9 15 30.68 1039 10 16.09344 0 0
6:35 pm 18:35 Clear 0 -18 -10 -23.2 64 64 NW 10 17 30.68 1039 10 16.09344 0 0
6:55 pm 18:55 Clear -2 -18.9 -11 -24 64 64 NW 7 11 30.71 1040 10 16.09344 0 0
7:15 pm 19:15 Clear -5 -20.7 -14 -25.5 66 66 NW 7 11 30.74 1041 10 16.09344 0 0
7:35 pm 19:35 Clear -2 -18.7 -11 -23.9 64 64 NW 8 13 30.71 1040 10 16.09344 0 0
7:55 pm 19:55 Clear -6 -20.9 -14 -25.6 66 66 NW 9 15 30.74 1041 10 16.09344 0 0
8:15 pm 20:15 Clear -6 -20.9 -14 -25.6 66 66 WNW 7 11 30.74 1041 10 16.09344 0 0
8:35 pm 20:35 Clear -8 -22.1 -15 -26 71 71 WNW 6 9 30.74 1041 10 16.09344 0 0
8:55 pm 20:55 Clear -8 -22.3 -15 -26.3 70 70 WNW 10 17 30.74 1041 10 16.09344 0 0
9:15 pm 21:15 Clear -9 -22.7 -16 -26.6 71 71 WNW 6 9 30.74 1041 10 16.09344 0 0
9:35 pm 21:35 Clear -7 -21.7 -15 -26 68 68 WNW 9 15 30.74 1041 10 16.09344 0 0
9:55 pm 21:55 Clear -9 -22.8 -17 -27.1 68 68 WNW 8 13 30.74 1041 10 16.09344 0 0
10:15 pm 22:15 Clear -7 -21.8 -15 -26.2 68 68 WNW 9 15 30.74 1041 10 16.09344 0 0
10:35 pm 22:35 Clear -8 -22.2 -17 -27 65 65 WNW 7 11 30.74 1041 10 16.09344 0 0
10:55 pm 22:55 Clear -9 -22.6 -16 -26.9 68 68 W 13 20 30.74 1041 10 16.09344 0 0
11:15 pm 23:15 Clear -10 -23.3 -18 -27.8 67 67 W 7 11 30.77 1042 10 16.09344 0 0
11:35 pm 23:35 Clear -10 -23.1 -17 -27.3 69 69 WNW 9 15 30.77 1042 10 16.09344 0 0
11:55 pm 23:55 Clear -10 -23.5 -17 -27.4 70 70 WNW 12 19 30.77 1042 10 16.09344 0 0

Powered by AerisWeather